Flag for U.S.A. Weather past 2 weeks in Anaheim, California, U.S.A.

Now
66 °F

Sunny.


Feels Like: 66 °F
Forecast: 59 / 74 °F
Wind: 8 mph from West

Location: Fullerton Municipal Airport

Current Time: May 26, 2015 at 7:46:01 PM

Latest Report: May 26, 2015 at 6:53 PM


Visibility: 10 mi

Pressure: 29.95 "Hg

Humidity: 65%

Dew point: 54 °F

Location of AnaheimLocation

Historic Weather in Anaheim — Graph

°F

Anaheim temperature yesterday

Maximum temperature yesterday: 72 °F (at 3:53 PM)
Minimum temperature yesterday: 57 °F (at 4:53 AM)
Average temperature yesterday: 64 °F

Past Weeks' High & Low Weather Summary

 TemperatureHumidityPressure
High75 °F (May 26, 2:53 PM)84% (May 14, 1:53 PM)30.08 "Hg (May 14, 1:53 PM)
Low55 °F (May 15, 10:53 AM)39% (May 21, 1:53 PM)29.78 "Hg (May 11, 6:53 PM)
Average64 °F64%29.96 "Hg
* Reported May 11 6:53 PM — May 26 6:53 PM, Anaheim, Weather by CustomWeather, © 2015

Note: Actual official high and low records may vary slightly from our data, if they occured in-between our weather recording intervals... More about our weather records

Advertising

Anaheim weather history for previous 24 hours

 ConditionsComfort  
Time TempWeatherWind HumidityBarometerVisibility
6:53 PM
Tue, May 26
66 °FSunny.8 mph65%29.95 "Hg10 mi
5:53 PM70 °FSunny.9 mph57%29.94 "Hg10 mi
4:53 PM73 °FSunny.6 mph51%29.93 "Hg10 mi
3:53 PM74 °FSunny.5 mph50%29.94 "Hg10 mi
2:53 PM75 °FPassing clouds.6 mph48%29.95 "Hg10 mi
1:53 PM73 °FPartly sunny.7 mph50%29.96 "Hg10 mi
12:53 PM72 °FPartly sunny.5 mph52%29.97 "Hg10 mi
11:53 AM69 °FOvercast.3 mph55%29.99 "Hg10 mi
10:53 AM67 °FOvercast.No wind61%29.98 "Hg10 mi
9:53 AM66 °FMostly cloudy.No wind65%29.98 "Hg10 mi
8:53 AM64 °FOvercast.No wind73%29.98 "Hg10 mi
7:53 AM62 °FMore clouds than sun.No wind78%29.99 "Hg8 mi
6:53 AM61 °FMore clouds than sun.No wind81%29.99 "Hg10 mi
5:53 AM62 °FOvercast.5 mph78%29.98 "Hg10 mi
4:53 AM63 °FOvercast.5 mph73%29.97 "Hg10 mi
3:53 AM63 °FOvercast.5 mph73%29.96 "Hg10 mi
2:53 AM64 °FOvercast.No wind70%29.95 "Hg10 mi
1:53 AM64 °FOvercast.No wind68%29.96 "Hg10 mi
12:53 AM64 °FOvercast.No wind70%29.97 "Hg10 mi
11:53 PM
Mon, May 25
64 °FOvercast.No wind70%29.98 "Hg10 mi
10:53 PM64 °FOvercast.3 mph70%29.98 "Hg10 mi
9:53 PM64 °FOvercast.No wind70%29.98 "Hg10 mi
8:53 PM63 °FOvercast.No wind73%29.96 "Hg10 mi
7:53 PM65 °FSunny.6 mph68%29.95 "Hg10 mi
Weather by CustomWeather, © 2015

See weather overviewHow to use our weather pages